カタログに戻る

STARLINK-4047

運用中通信VLEO
NORAD 53243·PAYLOAD·🇺🇸 United States

打ち上げ Jul 24, 2022 から Cape Canaveral Space Force Station

Loading…

次のパス (今後24時間)

TLE

最新Source: CelesTrak SupGP

元期: Sep 15, 2026, 02:38 UTC

1 53243C 22086B   26258.11020833 -.00033434  00000+0 -95579-3 0  2580
2 53243  53.1597  61.5282 0001314  73.9085 269.7133 15.35440543    10

AllMySatでSTARLINK-4047をリアルタイム追跡

Download on the App Store